This demonstration page uses our WeatherBlox Daily Observations layout. Learn more.

Left ArrowRight Arrow

39.08367, -84.50855

Hourly Observations for April 25, 2022

Temp ( °F °C ) Dew Point ( °F °C ) Humidity (%) Winds ( mph kmh ) Pressure ( in mb ) Visibility ( mi km ) Precip ( " mm )
12:53 am 00:53 Mostly Cloudy 64 17.8 57 13.9 78 78 SSW 9 15 29.97 1015 10 16 0.00 0.00
1:53 am 01:53 Cloudy 70 21.1 56 13.3 61 61 SSW 12 19 29.98 1015 10 16 0.00 0.00
2:53 am 02:53 Partly Cloudy 70 21.1 56 13.3 61 61 SSW 10 17 29.97 1015 10 16 0.00 0.00
3:53 am 03:53 Cloudy 66 18.9 57 13.9 73 73 SW 7 11 29.97 1015 10 16 0.00 0.00
4:53 am 04:53 Cloudy 65 18.3 59 15 81 81 Calm 29.97 1015 10 16 0.00 0.00
5:53 am 05:53 Cloudy 64 17.8 58 14.4 81 81 Calm 29.96 1015 10 16 0.00 0.00
6:53 am 06:53 Partly Cloudy 62 16.7 58 14.4 86 86 Calm 29.97 1015 10 16 0.00 0.00
7:53 am 07:53 Sunny 63 17.2 59 15 87 87 SW 3 6 29.98 1015 10 16 0.00 0.00
8:53 am 08:53 Cloudy 69 20.6 59 15 70 70 S 10 17 29.99 1016 10 16 0.00 0.00
9:53 am 09:53 Mostly Cloudy 72 22.2 60 15.6 66 66 SSW 14 22 29.99 1016 10 16 0.00 0.00
10:53 am 10:53 Mostly Cloudy 73 22.8 61 16.1 66 66 SSW 13 20 30.00 1016 10 16 0.00 0.00
11:53 am 11:53 Cloudy 73 22.8 61 16.1 66 66 WSW 15 24 30.00 1016 10 16 0.00 0.00
12:53 pm 12:53 Mostly Cloudy 72 22.2 61 16.1 68 68 W 15 24 30.00 1016 10 16 0.00 0.00
1:53 pm 13:53 Mostly Cloudy 73 22.8 64 17.8 74 74 SW 9 15 29.98 1015 10 16 0.00 0.00
2:53 pm 14:53 Mostly Cloudy 74 23.3 65 18.3 74 74 SW 7 11 29.96 1015 10 16 0.00 0.00
3:53 pm 15:53 Cloudy with Light Rain 66 18.9 63 17.2 90 90 W 15 24 29.99 1016 9 14 0.01 0.25
4:18 pm 16:18 Mostly Cloudy 65 18.3 61 16.1 87 87 W 14 22 30.01 1016 10 16 0.00 0.00
4:53 pm 16:53 Mostly Cloudy 65 18.3 60 15.6 84 84 WNW 12 19 30.02 1017 10 16 0.00 0.00
5:53 pm 17:53 Cloudy 64 17.8 58 14.4 81 81 W 9 15 30.04 1017 10 16 0.00 0.00
6:53 pm 18:53 Cloudy 63 17.2 57 13.9 81 81 VRB 7 11 30.06 1018 10 16 0.00 0.00
7:21 pm 19:21 Cloudy 62 16.7 55 12.8 78 78 W 9 15 30.07 1018 10 16 0.00 0.00
7:53 pm 19:53 Cloudy 62 16.7 53 11.7 73 73 NW 8 13 30.09 1019 10 16 0.00 0.00
8:53 pm 20:53 Cloudy 62 16.7 53 11.7 73 73 NW 7 11 30.10 1019 10 16 0.00 0.00
9:23 pm 21:23 Cloudy 61 16.1 52 11.1 72 72 NW 6 9 30.12 1020 10 16 0.00 0.00
9:53 pm 21:53 Cloudy 61 16.1 50 10 67 67 VRB 6 9 30.12 1020 10 16 0.00 0.00
10:53 pm 22:53 Cloudy 60 15.6 49 9.4 67 67 WNW 6 9 30.14 1021 10 16 0.00 0.00
11:53 pm 23:53 Clear 57 13.9 46 7.8 67 67 NW 10 17 30.15 1021 10 16 0.00 0.00

Powered by AerisWeather